Meteo Giornale » Osservazioni meteo Germania » Duesseldorf

ore: 20:20 - Osservazioni Meteo Duesseldorf
Lat. 51° 18' N Lon. 6° 46' E Alt. 45 metri s.l.m.

sereno Europe/Berlin

16 °C

Sereno

Temp. 24 Ore

11 °C

21 °C

Nord

3.7 Km/h

Dew point 14 °C

Umidità 87 %

Visibilità  10 Km

Il sole sorge alle ore 07:09

Il sole tramonta alle ore 19:44

Data e Ora Cielo e Fenomeni T °C DP °C Um. % Pres. hPa Vis. km Vento km/h
Oggi h: 20:20 sereno Sereno 16 14 87 1015 10 N 3.7
Oggi h: 19:50 sereno Sereno 17 14 82 1015 10 N 0
Oggi h: 19:20 poco_nuvoloso Poco Nuvoloso 19 14 72 1015 10 N 3.7
Oggi h: 18:20 poco_nuvoloso Poco Nuvoloso 21 13 60 1015 10 O 9.3
Oggi h: 17:50 poco_nuvoloso Poco Nuvoloso 21 13 60 1015 10 N 5.5
Oggi h: 17:20 poco_nuvoloso Poco Nuvoloso 21 13 60 1015 10 O 7.4
Oggi h: 16:50 poco_nuvoloso Poco Nuvoloso 21 13 60 1015 10 O/NO 7.4
Oggi h: 16:20 nuvoloso Nuvoloso 21 14 64 1015 10 O/SO 7.4
Oggi h: 15:50 nuvoloso Nuvoloso 20 14 68 1015 10 O/SO 7.4
Oggi h: 15:20 nuvoloso Nuvoloso 20 15 72 1015 10 O/SO 7.4
Oggi h: 14:50 poco_nuvoloso Poco Nuvoloso 20 14 68 1016 10 SO 7.4
Oggi h: 14:20 nuvoloso Nuvoloso 20 14 68 1016 10 O 7.4
Oggi h: 13:50 nuvoloso Nuvoloso 21 14 64 1016 10 N 7.4
Oggi h: 13:20 poco_nuvoloso Poco Nuvoloso 20 14 68 1016 10 N 3.7
Oggi h: 12:50 poco_nuvoloso Poco Nuvoloso 20 13 64 1016 10 N 5.5
Oggi h: 12:20 poco_nuvoloso Poco Nuvoloso 19 13 68 1016 10 S 9.3
Oggi h: 11:50 molto_nuvoloso Molto Nuvoloso 18 13 72 1016 10 N 3.7
Oggi h: 11:20 poco_nuvoloso Poco Nuvoloso 18 13 72 1016 10 N 5.5
Oggi h: 10:50 sereno Sereno 17 14 82 1016 10 N 5.5
Oggi h: 10:20 sereno Sereno 16 14 87 1016 10 S/SE 9.3
Oggi h: 09:50 sereno Sereno 16 13 82 1016 10 S/SE 9.3
Oggi h: 09:20 sereno Sereno 16 14 87 1016 10 N 5.5
Oggi h: 08:50 sereno Sereno 15 14 93 1016 10 N 5.5
Oggi h: 08:20 sereno Sereno 15 13 87 1016 9 N 5.5
Oggi h: 07:50 sereno Sereno 14 13 93 1016 9 N 3.7
Oggi h: 07:20 sereno Sereno 14 13 93 1016 9 N 3.7
Oggi h: 06:50 sereno Sereno 14 13 93 1016 9 N 5.5
Oggi h: 06:20 poco_nuvoloso Poco Nuvoloso 14 13 93 1016 9 N 5.5
Oggi h: 05:50 poco_nuvoloso Poco Nuvoloso 14 13 93 1016 10 N 5.5
Oggi h: 05:20 sereno Sereno 14 13 93 1017 9 N 3.7
Oggi h: 04:50 sereno Sereno 14 13 93 1017 8 N 3.7
Oggi h: 04:20 sereno Sereno 13 13 100 1017 10 N 3.7
Oggi h: 03:50 sereno Sereno 13 13 100 1017 10 N 3.7
Oggi h: 03:20 sereno Sereno 13 12 93 1017 10 N 5.5
Oggi h: 02:50 sereno Sereno 12 12 100 1017 10 N 3.7
Oggi h: 02:20 sereno Sereno 12 12 100 1017 10 N 3.7
Oggi h: 01:50 sereno Sereno 12 12 100 1018 10 N 3.7
Oggi h: 01:20 sereno Sereno 11 11 100 1018 10 N 1.8
Oggi h: 00:50 sereno Sereno 12 12 100 1018 10 N 1.8
Oggi h: 00:20 sereno Sereno 12 12 100 1018 10 N 1.8
Ieri h: 23:50 sereno Sereno 13 13 100 1018 10 N 3.7
Ieri h: 23:20 sereno Sereno 13 13 100 1017 10 N 1.8
Ieri h: 22:50 sereno Sereno 13 13 100 1017 10 N 1.8
Ieri h: 22:20 poco_nuvoloso Poco Nuvoloso 13 13 100 1017 10 N 1.8
Ieri h: 21:50 poco_nuvoloso Poco Nuvoloso 14 13 93 1017 10 N 1.8
Ieri h: 21:20 poco_nuvoloso Poco Nuvoloso 15 13 87 1017 10 N 1.8
Ieri h: 20:50 poco_nuvoloso Poco Nuvoloso 16 14 87 1017 10 N 1.8